Temp
69 69 71 70 70 70 70 70 71 72 72 72 73 72 72 73 73 73 73 73 73 73 72 71 72 71 70 69 68 69 67 67
68 68 69 69 69 69 68 69 70 70 71 70 70 70 71 71 71 72 73 72 72 72 71 71 71 70 69 68 68 68 66 66
68 67 67 68 69 70 70 70 69 69 70 70 68 70 69 70 70 70 71 71 71 71 70 70 69 69 69 68 68 67 66 66
59 61 63 68 71 68 68 71 71 71 71 70 70 71 71 70 69 69 69 69 69 69 69 69 68 67 67 68 67 67 66 66
55 56 58 58 61 64 68 69 70 70 70 70 71 71 71 71 69 68 68 68 69 68 67 67 67 66 66 66 66 66 66 66
54 52 54 54 56 57 59 60 64 67 69 70 69 68 68 68 70 70 70 71 70 70 68 67 67 66 66 65 65 65 65 65
51 51 50 52 53 53 54 55 58 61 64 64 66 68 68 68 69 70 70 71 70 69 69 68 68 68 66 65 65 65 65 65
49 50 48 49 49 49 50 52 54 56 59 61 63 63 64 68 68 69 68 70 71 70 69 68 67 67 67 66 66 65 65 65
46 48 47 46 46 47 48 49 51 51 53 56 58 61 61 61 63 67 69 69 69 68 68 66 66 67 66 66 66 66 66 65
44 46 44 43 44 46 47 47 48 49 50 52 55 56 58 59 60 64 66 67 68 68 68 66 66 65 66 65 66 65 65 66
41 42 41 41 43 44 44 45 45 45 47 48 51 53 57 56 58 60 65 63 60 65 67 67 65 65 65 66 65 65 65 67
40 41 40 41 42 42 43 43 44 45 46 46 49 51 53 53 55 56 58 59 60 61 63 66 65 66 66 65 64 65 64 65
38 38 39 39 38 37 39 40 40 43 44 46 47 47 50 50 50 51 53 55 58 62 62 62 63 65 64 63 63 64 63 65
37 37 38 38 39 38 38 38 39 41 43 43 43 45 46 48 47 49 51 53 55 60 61 61 61 64 62 62 59 60 62 64
36 37 38 38 39 38 37 38 38 38 38 39 41 43 44 45 46 48 48 50 52 55 60 62 60 62 64 62 57 57 60 62
37 38 37 38 39 37 36 35 34 37 37 39 39 41 42 44 45 46 46 47 49 52 57 62 62 59 62 64 64 60 57 56
35 39 37 39 39 39 37 36 37 39 39 39 41 42 42 42 44 44 45 47 48 50 54 57 61 61 61 61 60 60 61 58
33 37 36 38 36 37 37 36 37 37 38 38 40 42 43 44 45 45 44 44 46 50 54 57 59 61 62 61 60 59 60 59
32 33 32 33 34 35 35 36 36 36 37 38 39 41 42 44 45 45 46 47 46 46 48 50 52 59 62 62 62 62 62 62
31 30 31 33 33 34 33 35 35 36 38 38 39 41 42 45 45 45 45 47 47 46 46 47 50 52 56 61 62 63 63 63
MSLP
1012.42 1012.50 1012.39 1012.22 1012.26 1012.10 1012.00 1012.24 1012.41 1012.60 1012.71 1012.81 1012.92 1012.78 1012.77 1012.84 1013.10 1013.36 1013.46 1013.58 1013.93 1014.26 1014.52 1014.74 1015.02 1015.19 1015.25 1015.44 1015.62 1015.73 1016.04 1016.18
1012.74 1012.71 1012.63 1012.52 1012.55 1012.61 1012.37 1012.35 1012.36 1012.65 1012.86 1013.03 1013.06 1013.29 1013.31 1013.32 1013.33 1013.49 1013.67 1013.77 1013.89 1014.19 1014.41 1014.68 1015.03 1015.22 1015.34 1015.49 1015.68 1015.80 1016.02 1016.19
1013.08 1013.03 1012.84 1012.73 1012.49 1012.55 1012.58 1012.55 1012.58 1012.59 1012.79 1012.98 1013.17 1013.27 1013.42 1013.53 1013.49 1013.38 1013.55 1013.81 1013.97 1014.12 1014.23 1014.38 1014.65 1015.06 1015.43 1015.69 1015.79 1015.91 1016.00 1016.17
1014.74 1014.20 1013.79 1013.06 1012.81 1012.85 1012.65 1012.74 1012.76 1012.82 1012.79 1012.92 1013.05 1013.19 1013.32 1013.49 1013.63 1013.60 1013.45 1013.62 1013.93 1014.10 1014.36 1014.43 1014.50 1014.78 1015.28 1015.68 1015.79 1015.85 1016.01 1016.08
1015.82 1015.44 1014.96 1014.61 1014.09 1013.63 1013.09 1012.74 1012.68 1012.71 1012.90 1013.03 1012.96 1013.03 1013.13 1013.28 1013.45 1013.47 1013.56 1013.50 1013.76 1014.06 1014.25 1014.37 1014.45 1014.53 1014.84 1015.37 1015.68 1015.78 1015.75 1015.75
1017.10 1016.72 1016.22 1015.63 1015.23 1014.77 1014.29 1014.03 1013.50 1013.03 1012.77 1012.86 1013.01 1013.06 1013.13 1013.10 1012.97 1013.09 1013.26 1013.21 1013.34 1013.68 1014.16 1014.43 1014.53 1014.41 1014.47 1014.73 1015.19 1015.50 1015.49 1015.58
1018.19 1017.81 1017.39 1016.67 1016.13 1015.87 1015.29 1014.89 1014.52 1014.02 1013.36 1013.12 1012.92 1013.03 1013.12 1012.82 1012.65 1012.60 1012.63 1012.80 1012.97 1013.23 1013.54 1014.01 1014.37 1014.40 1014.31 1014.44 1014.67 1015.03 1015.29 1015.23
1019.16 1018.69 1018.42 1017.79 1017.14 1016.83 1016.26 1015.74 1015.21 1014.69 1014.20 1013.79 1013.36 1013.30 1013.10 1012.73 1012.66 1012.47 1012.29 1012.26 1011.92 1012.20 1012.73 1013.32 1013.83 1014.23 1014.19 1014.17 1014.08 1014.29 1014.78 1015.03
1019.82 1019.17 1018.86 1018.31 1017.76 1017.18 1016.86 1016.16 1015.61 1015.28 1014.96 1014.45 1014.08 1013.66 1013.39 1013.00 1012.84 1012.37 1012.12 1012.02 1011.54 1011.49 1012.07 1012.58 1013.21 1013.75 1013.89 1013.80 1013.87 1013.93 1014.03 1014.48
1020.54 1019.98 1019.47 1018.93 1018.26 1017.65 1017.27 1016.71 1016.15 1015.71 1015.26 1014.85 1014.59 1014.24 1013.62 1013.16 1012.77 1011.75 1011.55 1011.97 1010.85 1010.89 1010.68 1011.95 1012.41 1012.99 1013.33 1013.27 1013.53 1013.63 1013.73 1013.89
1021.06 1020.56 1020.00 1019.34 1018.66 1018.17 1017.62 1016.93 1016.54 1016.31 1015.66 1015.25 1014.74 1014.45 1013.89 1013.37 1012.88 1012.11 1011.20 1011.00 1010.71 1008.85 1010.88 1010.66 1011.98 1012.56 1012.71 1012.89 1012.76 1013.08 1013.40 1013.33
1021.63 1021.23 1020.70 1019.94 1019.15 1018.41 1017.57 1017.11 1016.94 1016.59 1016.05 1015.51 1014.91 1014.47 1014.11 1013.70 1013.16 1012.67 1011.90 1010.80 1009.68 1009.65 1011.20 1011.15 1011.00 1011.72 1012.25 1012.39 1012.23 1011.97 1012.59 1012.98
1022.02 1021.49 1020.96 1020.24 1019.54 1018.88 1017.88 1017.45 1017.12 1016.71 1016.25 1015.52 1015.18 1014.84 1014.18 1013.76 1013.31 1012.84 1012.15 1011.45 1010.68 1010.01 1009.99 1010.80 1010.41 1011.36 1011.89 1011.99 1011.83 1011.41 1011.71 1012.01
1022.02 1021.56 1021.04 1020.51 1020.01 1019.66 1019.31 1018.61 1017.50 1016.96 1016.18 1015.77 1015.53 1014.79 1014.36 1013.76 1013.37 1012.64 1012.09 1011.53 1010.77 1010.14 1009.53 1009.16 1010.04 1011.00 1011.14 1011.20 1011.20 1011.19 1011.06 1011.19
1022.29 1021.64 1021.01 1020.65 1020.22 1019.54 1019.16 1018.50 1017.78 1017.10 1016.50 1015.95 1015.35 1014.77 1014.19 1013.48 1012.94 1012.52 1011.95 1011.72 1011.06 1010.39 1009.62 1009.11 1008.69 1010.09 1010.52 1010.75 1010.02 1009.91 1010.09 1010.03
1022.57 1021.96 1021.54 1021.07 1020.39 1019.80 1019.37 1018.76 1017.86 1017.32 1016.53 1015.77 1015.02 1014.41 1013.89 1013.21 1012.58 1012.23 1011.81 1011.32 1010.89 1010.24 1009.59 1008.46 1008.28 1008.26 1008.60 1007.43 1009.30 1008.69 1009.08 1009.37
1023.09 1022.24 1021.80 1021.26 1020.68 1020.09 1019.40 1018.68 1017.88 1016.86 1016.13 1015.24 1014.45 1013.73 1013.21 1012.69 1012.13 1011.74 1011.43 1010.93 1010.34 1009.87 1009.19 1008.36 1007.17 1007.11 1007.39 1008.53 1008.55 1008.76 1008.89 1009.18
1023.34 1022.48 1021.89 1021.38 1020.92 1020.15 1019.42 1018.55 1017.60 1016.54 1015.70 1014.66 1013.67 1012.90 1012.25 1011.86 1011.53 1011.06 1010.77 1010.39 1009.90 1009.27 1008.52 1007.66 1006.87 1006.14 1006.20 1006.87 1007.49 1007.61 1008.05 1008.41
1023.45 1022.60 1022.00 1021.51 1020.85 1020.03 1019.36 1018.46 1017.44 1016.39 1015.31 1014.22 1013.28 1012.33 1011.70 1011.26 1010.81 1010.29 1009.82 1009.47 1009.15 1008.87 1008.40 1007.61 1006.91 1005.55 1005.44 1005.71 1006.67 1007.06 1007.29 1007.58
1023.57 1022.85 1022.12 1021.47 1020.80 1019.95 1019.32 1018.36 1017.39 1016.20 1015.13 1014.14 1013.09 1012.14 1011.30 1010.54 1009.92 1009.47 1009.05 1008.63 1008.38 1008.16 1007.80 1007.25 1006.46 1005.99 1005.39 1005.08 1005.51 1005.93 1006.14 1006.50
Wind_Speed
4 3 3 3 4 4 5 5 7 8 7 7 7 8 9 11 10 10 11 11 10 11 10 10 9 9 10 9 9 7 5 3
5 4 4 5 5 7 8 6 5 4 4 5 5 3 3 6 8 8 9 9 10 11 10 9 9 9 9 9 9 6 4 4
9 6 6 5 4 4 6 7 7 3 4 4 2 1 2 4 6 7 8 8 9 10 10 10 10 8 8 7 8 3 4 3
12 13 12 9 6 6 4 4 4 4 3 3 3 3 3 3 5 6 8 7 6 7 8 9 7 4 3 6 3 4 3 3
15 14 13 12 10 7 5 3 3 1 5 4 3 3 3 3 3 3 4 5 4 4 4 4 5 4 4 4 4 4 3 3
14 15 13 12 7 8 7 6 6 5 2 3 2 2 4 4 4 5 5 6 6 6 4 3 4 5 5 6 6 4 3 3
15 14 14 12 11 8 8 7 6 6 6 7 5 2 3 3 5 5 7 7 7 6 6 6 6 8 6 6 6 6 6 4
14 14 14 12 10 10 7 6 7 6 7 7 6 3 5 3 4 6 6 7 8 8 8 7 7 6 10 7 8 6 6 6
15 14 14 13 12 10 8 6 6 6 6 8 8 6 5 5 5 5 8 8 10 8 8 6 6 6 9 8 6 8 7 8
13 13 14 14 12 9 8 7 5 6 6 4 7 8 7 5 5 5 7 12 10 9 9 7 8 8 8 8 7 6 7 8
13 13 14 15 12 9 8 8 4 8 5 6 8 8 7 5 4 7 7 9 8 7 5 8 6 6 8 8 8 7 8 7
11 11 13 13 9 10 7 6 6 7 6 7 9 6 9 6 5 5 6 10 10 6 9 6 6 9 8 9 9 9 7 8
12 12 12 11 9 11 8 8 10 6 7 8 8 9 8 7 5 6 6 6 9 9 11 8 6 9 8 6 6 8 9 9
14 13 12 11 8 8 6 8 6 9 7 8 9 8 9 9 8 7 7 7 9 10 11 10 12 11 9 9 7 4 7 9
13 14 12 13 13 9 7 7 7 7 8 9 8 10 11 10 9 8 8 6 8 9 10 17 14 15 17 10 4 7 5 5
12 13 14 12 13 11 14 12 13 11 10 10 10 12 11 11 11 10 10 8 10 9 10 12 14 15 7 15 13 2 5 4
11 12 12 15 14 14 11 13 10 9 11 16 14 11 10 11 10 10 10 8 10 10 11 12 13 13 15 9 6 7 7 6
11 12 12 13 12 14 15 15 15 13 14 13 9 8 8 10 12 10 10 10 12 11 10 14 15 17 15 13 12 8 9 9
12 14 14 14 15 13 14 14 15 13 14 11 12 9 8 9 11 11 9 12 11 11 11 11 12 11 18 14 11 12 13 11
15 15 17 17 16 15 14 15 10 10 11 11 9 9 9 11 11 12 13 13 12 12 8 10 12 10 10 12 12 15 11 14
Wind_Direction
23 356 309 321 289 241 217 218 220 222 216 204 206 195 184 177 177 179 179 179 176 169 175 183 182 175 183 171 180 169 162 177
15 3 357 350 342 322 296 236 223 240 236 229 222 234 216 197 181 190 196 191 178 173 178 184 190 188 191 179 184 176 172 193
16 15 13 352 345 331 331 319 286 234 229 227 203 185 232 226 213 194 202 205 195 184 182 187 190 198 192 193 192 193 177 198
14 19 14 7 8 359 11 341 322 285 249 215 200 192 189 214 232 227 211 207 208 195 189 196 184 184 179 196 215 208 195 193
20 15 15 15 11 359 10 6 343 333 304 291 243 209 195 194 214 224 229 201 200 196 194 195 201 190 185 177 215 222 212 200
18 16 13 12 6 11 8 8 0 351 299 288 278 262 237 227 220 222 226 220 209 195 193 191 224 220 206 183 196 221 217 218
12 14 10 3 10 360 1 3 356 346 11 30 17 296 247 231 225 222 222 218 214 198 197 194 212 233 235 210 198 206 232 225
2 10 7 0 5 353 349 350 344 353 356 354 352 303 328 284 249 231 230 228 205 194 193 195 200 223 238 232 220 207 207 225
5 0 2 1 354 351 339 334 346 355 351 344 342 348 331 317 283 305 264 236 220 198 191 188 189 200 235 231 227 229 216 219
360 358 357 354 349 346 335 325 336 350 337 345 348 335 317 301 301 273 277 291 225 204 179 195 205 203 222 229 224 220 228 228
360 357 357 348 343 342 328 320 354 339 321 347 330 324 327 328 295 309 289 215 242 294 223 191 213 218 217 224 223 212 211 221
360 356 354 349 341 338 331 322 351 315 342 320 318 330 332 341 329 307 314 315 290 169 263 258 220 230 224 224 231 216 200 210
359 353 352 352 350 347 345 333 329 328 321 311 345 327 320 327 313 304 298 292 303 258 215 249 265 252 243 231 240 229 209 212
353 350 345 349 346 336 314 313 309 310 310 326 313 318 318 307 304 289 297 297 287 298 227 225 231 254 252 243 225 220 221 217
347 341 347 347 341 333 324 313 308 313 319 313 312 309 303 293 288 287 286 286 279 273 274 214 212 232 238 245 230 228 188 185
344 341 353 337 339 334 334 324 320 317 308 304 303 304 296 289 288 283 275 274 265 270 267 251 218 219 199 218 230 240 228 201
346 339 338 342 339 333 326 319 310 307 307 303 304 299 287 276 273 280 276 267 272 272 272 267 227 221 213 230 257 259 229 258
337 347 342 338 338 327 327 318 317 316 311 306 296 295 294 274 264 256 264 264 263 260 260 255 260 224 223 210 226 233 244 227
342 348 342 342 342 330 328 319 318 311 311 304 305 297 283 275 273 273 265 268 267 271 273 275 278 254 225 223 224 236 241 246
348 348 346 346 344 340 335 330 323 319 316 313 306 304 301 296 272 265 265 265 259 261 263 268 273 274 283 221 226 232 228 219